N2OCK Weather Reports


time (UTC)temp
C
wind
direction
speed
KPH
gust
KPH
rain 1hr
cm
rain 24hr
cm
rain mn
cm
humidity
%
barometer
mb
20260504195029 18 190 4.8 17.7 0.00 0.00 0.00 53 1010.9
20260504194525 18 202 8.0 14.5 0.00 0.00 0.00 51 1011.0
20260504194020 18 226 9.7 20.9 0.00 0.00 0.00 51 1010.9
20260504193517 18 72 3.2 11.3 0.00 0.00 0.00 52 1011.2
20260504193017 19 205 8.0 14.5 0.00 0.00 0.00 50 1011.1
20260504192514 19 214 1.6 9.7 0.00 0.00 0.00 50 1011.0
20260504192012 20 194 12.9 17.7 0.00 0.00 0.00 46 1011.0
20260504191510 19 200 4.8 9.7 0.00 0.00 0.00 48 1011.1
20260504191005 19 211 8.0 12.9 0.00 0.00 0.00 49 1011.0
20260504190501 19 209 12.9 17.7 0.00 0.00 0.00 47 1011.0
20260504185958 18 211 11.3 20.9 0.00 0.00 0.00 49 1011.2
20260504185455 19 197 9.7 16.1 0.00 0.00 0.00 47 1011.2
20260504184951 20 174 3.2 14.5 0.00 0.00 0.00 47 1011.2
20260504184447 19 231 3.2 14.5 0.00 0.00 0.00 46 1011.3
20260504183943 20 331 11.3 14.5 0.00 0.00 0.00 42 1011.4
20260504183440 20 231 9.7 16.1 0.00 0.00 0.00 45 1011.3
20260504182938 20 222 3.2 11.3 0.00 0.00 0.00 47 1011.5
20260504182434 20 179 9.7 14.5 0.00 0.00 0.00 46 1011.3
20260504181932 19 189 4.8 12.9 0.00 0.00 0.00 49 1011.4
20260504181424 20 205 6.4 12.9 0.00 0.00 0.00 46 1011.7
20260504180922 19 193 6.4 11.3 0.00 0.00 0.00 48 1011.9
20260504180421 19 215 3.2 12.9 0.00 0.00 0.00 49 1011.6
20260504175919 19 213 6.4 11.3 0.00 0.00 0.00 49 1011.7
20260504175415 19 217 4.8 20.9 0.00 0.00 0.00 49 1011.8
20260504174913 19 217 3.2 14.5 0.00 0.00 0.00 50 1011.8
20260504174410 19 312 3.2 17.7 0.00 0.00 0.00 49 1011.5
20260504173908 19 183 1.6 6.4 0.00 0.00 0.00 49 1011.7
20260504173403 18 195 3.2 9.7 0.00 0.00 0.00 50 1011.7
20260504172901 18 164 8.0 14.5 0.00 0.00 0.00 47 1011.8
20260504172357 18 169 8.0 12.9 0.00 0.00 0.00 47 1011.8
20260504171853 18 251 8.0 16.1 0.00 0.00 0.00 47 1012.0
20260504171351 18 237 12.9 16.1 0.00 0.00 0.00 46 1012.0
20260504170848 18 326 9.7 17.7 0.00 0.00 0.00 45 1011.9
20260504170344 18 202 6.4 17.7 0.00 0.00 0.00 45 1012.2
20260504160303 18 220 6.4 12.9 0.00 0.00 0.00 41 1012.8
20260504150728 18 202 11.3 17.7 0.00 0.00 0.00 39 1013.4
20260504150225 18 231 9.7 16.1 0.00 0.00 0.00 41 1013.3
20260504141154 17 200 8.0 11.3 0.00 0.00 0.00 46 1013.4
20260504140651 17 264 4.8 16.1 0.00 0.00 0.00 44 1013.6
20260504140146 17 219 3.2 14.5 0.00 0.00 0.00 45 1013.7
20260504130614 15 203 1.6 6.4 0.00 0.00 0.00 50 1014.1
20260504130111 15 197 3.2 9.7 0.00 0.00 0.00 49 1014.0
20260504110502 11 198 1.6 4.8 0.00 0.00 0.00 61 1014.2
20260504100419 8 220 1.6 1.6 0.00 0.00 0.00 65 1014.0
20260504081806 10 218 0.0 4.8 0.00 0.00 0.00 56 1013.4
20260504081303 10 213 0.0 0.0 0.00 0.00 0.00 57 1013.4
20260504080759 10 215 0.0 1.6 0.00 0.00 0.00 57 1013.3
20260504080256 9 215 0.0 6.4 0.00 0.00 0.00 56 1013.2
20260504070223 10 224 0.0 3.2 0.00 0.00 0.00 58 1012.9
20260504060144 8 224 0.0 4.8 0.00 0.00 0.00 64 1013.1
20260504050612 7 219 0.0 1.6 0.00 0.00 0.00 66 1012.6
20260504050109 7 219 0.0 0.0 0.00 0.00 0.00 66 1012.7
20260504045606 7 219 0.0 1.6 0.00 0.00 0.00 64 1012.8
20260504045101 8 219 0.0 0.0 0.00 0.00 0.00 63 1012.9
20260504044559 8 219 1.6 3.2 0.00 0.00 0.00 62 1012.8
20260504044055 8 220 0.0 3.2 0.00 0.00 0.00 62 1012.5
20260504043553 7 207 0.0 3.2 0.00 0.00 0.00 63 1012.7
20260504043050 6 207 0.0 0.0 0.00 0.00 0.00 67 1012.6
20260504042547 6 207 0.0 0.0 0.00 0.00 0.00 66 1012.8
20260504042044 6 207 0.0 0.0 0.00 0.00 0.00 65 1012.6
20260504041539 7 207 0.0 0.0 0.00 0.00 0.00 63 1012.6
20260504041036 7 207 0.0 0.0 0.00 0.00 0.00 62 1012.5
20260504040533 7 207 0.0 0.0 0.00 0.00 0.00 62 1012.5
20260504040030 7 207 0.0 0.0 0.00 0.00 0.00 61 1012.7
20260504035527 7 207 0.0 0.0 0.00 0.00 0.00 59 1012.6
20260504035023 8 207 0.0 0.0 0.00 0.00 0.00 57 1012.7
20260504034521 7 221 0.0 0.0 0.00 0.00 0.00 57 1012.6
20260504034018 7 221 0.0 0.0 0.00 0.00 0.00 59 1012.5
20260504033516 6 221 0.0 0.0 0.00 0.00 0.00 64 1012.5
20260504033013 6 221 0.0 0.0 0.00 0.00 0.00 66 1012.6
20260504032509 6 221 0.0 0.0 0.00 0.00 0.00 65 1012.5
20260504032006 6 221 0.0 0.0 0.00 0.00 0.00 65 1012.4
20260504031503 6 221 0.0 0.0 0.00 0.00 0.00 64 1012.5
20260504031000 6 221 0.0 0.0 0.00 0.00 0.00 63 1012.4
20260504030457 6 221 0.0 0.0 0.00 0.00 0.00 62 1012.4
20260504025953 7 221 0.0 0.0 0.00 0.00 0.00 59 1012.6
20260504025450 7 221 0.0 0.0 0.00 0.00 0.00 60 1012.4
20260504024947 7 221 0.0 0.0 0.00 0.00 0.00 59 1012.4
20260504024444 7 221 0.0 0.0 0.00 0.00 0.00 58 1012.4
20260504023941 6 221 0.0 0.0 0.00 0.00 0.00 62 1012.6
20260504023437 6 221 0.0 0.0 0.00 0.00 0.00 67 1012.5
20260504022933 6 221 0.0 0.0 0.00 0.00 0.00 65 1012.5
20260504022429 6 221 0.0 0.0 0.00 0.00 0.00 67 1012.6
20260504021926 6 221 0.0 0.0 0.00 0.00 0.00 66 1012.6
20260504021424 6 221 0.0 0.0 0.00 0.00 0.00 65 1012.4
20260504020921 6 221 0.0 0.0 0.00 0.00 0.00 64 1012.4
20260504020417 6 221 0.0 0.0 0.00 0.00 0.00 63 1012.5
20260504015914 6 221 0.0 0.0 0.00 0.00 0.00 63 1012.5
20260504015410 7 221 0.0 0.0 0.00 0.00 0.00 60 1012.4
20260504014906 7 221 0.0 0.0 0.00 0.00 0.00 58 1012.1
20260504014401 7 221 0.0 0.0 0.00 0.00 0.00 57 1012.2
20260504013859 7 221 0.0 0.0 0.00 0.00 0.00 57 1012.3
20260504013357 7 221 0.0 0.0 0.00 0.00 0.00 57 1012.2
20260504012848 7 221 0.0 0.0 0.00 0.00 0.00 57 1012.1
20260504012345 8 221 0.0 0.0 0.00 0.00 0.00 58 1012.1
20260504011843 8 221 0.0 0.0 0.00 0.00 0.00 56 1011.9
20260504011339 8 221 0.0 0.0 0.00 0.00 0.00 55 1011.9
20260504010835 8 224 0.0 0.0 0.00 0.00 0.00 53 1012.0
20260504010331 8 224 0.0 0.0 0.00 0.00 0.00 49 1012.0
20260504005828 8 224 0.0 0.0 0.00 0.00 0.00 49 1011.7
20260504005325 9 224 0.0 0.0 0.00 0.00 0.00 48 1011.7
20260504004822 9 224 0.0 0.0 0.00 0.00 0.00 46 1011.8
20260504004320 10 224 0.0 0.0 0.00 0.00 0.00 45 1011.7
20260504003816 10 224 0.0 0.0 0.00 0.00 0.00 45 1011.6
20260504003313 10 224 0.0 0.0 0.00 0.00 0.00 44 1011.6
20260504002809 10 224 0.0 0.0 0.00 0.00 0.00 43 1011.4
20260504002307 10 224 0.0 0.0 0.00 0.00 0.00 42 1011.2
20260504001804 11 224 0.0 0.0 0.00 0.00 0.00 41 1011.2
20260504001301 11 224 0.0 0.0 0.00 0.00 0.00 42 1011.3
20260504000758 11 225 0.0 0.0 0.00 0.00 0.00 41 1011.1
20260504000255 11 225 0.0 0.0 0.00 0.00 0.00 39 1010.8
20260503235753 11 225 0.0 0.0 0.00 0.00 0.00 38 1011.1
20260503235250 12 225 0.0 0.0 0.00 0.00 0.00 37 1010.9
20260503234747 12 241 0.0 3.2 0.00 0.00 0.00 35 1011.0
20260503234245 12 233 0.0 1.6 0.00 0.00 0.00 35 1011.0
20260503233742 13 254 3.2 3.2 0.00 0.00 0.00 34 1010.9
20260503233238 13 241 0.0 3.2 0.00 0.00 0.00 34 1010.7
20260503232735 13 290 4.8 14.5 0.00 0.00 0.00 32 1010.7
20260503232232 13 222 1.6 4.8 0.00 0.00 0.00 33 1010.6
20260503231730 14 253 8.0 11.3 0.00 0.00 0.00 31 1010.5
20260503231227 14 311 4.8 9.7 0.00 0.00 0.00 31 1010.4
20260503230722 14 204 1.6 4.8 0.00 0.00 0.00 32 1010.4
20260503230220 14 266 4.8 6.4 0.00 0.00 0.00 31 1010.3
20260503225712 15 322 6.4 9.7 0.00 0.00 0.00 30 1010.2
20260503225212 15 272 1.6 4.8 0.00 0.00 0.00 30 1010.4
20260503224709 15 44 3.2 4.8 0.00 0.00 0.00 30 1010.4
20260503224207 15 227 3.2 16.1 0.00 0.00 0.00 30 1010.4
20260503223705 15 275 16.1 22.5 0.00 0.00 0.00 29 1010.3
20260503223202 15 307 6.4 14.5 0.00 0.00 0.00 29 1010.2
20260503222658 15 352 9.7 14.5 0.00 0.00 0.00 29 1010.4
20260503222156 15 283 4.8 14.5 0.00 0.00 0.00 29 1010.3
20260503221654 15 187 1.6 11.3 0.00 0.00 0.00 31 1010.2
20260503221151 15 287 6.4 14.5 0.00 0.00 0.00 30 1010.2
20260503220648 15 291 3.2 9.7 0.00 0.00 0.00 30 1010.2
20260503220144 15 282 9.7 14.5 0.00 0.00 0.00 30 1010.3
20260503215642 15 301 9.7 12.9 0.00 0.00 0.00 30 1010.2
20260503215138 15 278 9.7 12.9 0.00 0.00 0.00 29 1010.2
20260503214637 15 319 1.6 6.4 0.00 0.00 0.00 31 1010.3
20260503214132 15 322 8.0 12.9 0.00 0.00 0.00 31 1010.1
20260503213632 15 307 14.5 17.7 0.00 0.00 0.00 31 1010.0
20260503213127 15 148 8.0 14.5 0.00 0.00 0.00 31 1010.2
20260503212625 15 319 4.8 20.9 0.00 0.00 0.00 31 1010.0
20260503212122 15 354 12.9 24.1 0.00 0.00 0.00 31 1010.0
20260503211620 15 3 8.0 14.5 0.00 0.00 0.00 32 1010.1
20260503211115 15 279 3.2 12.9 0.00 0.00 0.00 33 1010.2
20260503210612 15 251 3.2 17.7 0.00 0.00 0.00 32 1010.0
20260503210109 15 311 3.2 11.3 0.00 0.00 0.00 32 1010.0
20260503205604 15 257 9.7 17.7 0.00 0.00 0.00 32 1010.1
20260503205101 14 261 3.2 17.7 0.00 0.00 0.00 34 1010.0
20260503204558 15 255 8.0 22.5 0.00 0.00 0.00 33 1010.0
20260503204055 14 301 8.0 24.1 0.00 0.00 0.00 34 1009.9
20260503203552 14 285 4.8 17.7 0.00 0.00 0.00 33 1010.0
20260503203049 14 266 4.8 17.7 0.00 0.00 0.00 35 1009.8
20260503202547 14 327 6.4 20.9 0.00 0.00 0.00 34 1010.1
20260503202045 14 335 4.8 12.9 0.00 0.00 0.00 36 1010.3
20260503201543 13 277 6.4 17.7 0.00 0.00 0.00 36 1010.0
20260503201040 14 300 6.4 14.5 0.00 0.00 0.00 36 1010.1
20260503200536 14 285 4.8 11.3 0.00 0.00 0.00 35 1010.2
20260503200033 15 248 11.3 16.1 0.00 0.00 0.00 33 1010.2
20260503195530 14 266 3.2 11.3 0.00 0.00 0.00 35 1010.1